Weather History for Hutchinson, MN

Change the Weather History Date:

Friday, August 8, 2014

  Actual Average Record
Temperature  
Mean Temperature 72 °F -  
Max Temperature 81 °F 81 °F 96 °F (1983)
Min Temperature 64 °F 60 °F 46 °F (2008)
Cooling Degree Days 8    
Growing Degree Days 22 (Base 50)    
Moisture  
Dew Point 62 °F    
Average Humidity 72    
Maximum Humidity 91    
Minimum Humidity 49    
Precipitation  
Precipitation 0.00 in - - ()
Sea Level Pressure  
Sea Level Pressure 30.08 in    
Wind  
Wind Speed 4 mph (SE)    
Max Wind Speed 12 mph    
Max Gust Speed -    
Visibility 10 miles    
Events      
Averages and records for this station are not official NWS values.
T = Trace of Precipitation, MM = Missing Value Source: NWS Daily Summary

Daily Weather History Graph

Daily Weather History Graph

Search for Another Location

Airport:

Trip Planner

Search our weather history database for the weather conditions in past years. The results will help you decide how hot, cold, wet, or windy it might be!

Date:

Astronomy

Aug. 08, 2014 Rise Set
Actual Time 6:11 AM CDT 8:34 PM CDT
Civil Twilight 5:38 AM CDT 9:06 PM CDT
Nautical Twilight 4:57 AM CDT 9:47 PM CDT
Astronomical Twilight 4:11 AM CDT 10:32 PM CDT
Moon 6:47 PM CDT (8/8) 3:43 AM CDT (8/8)
Length of Visible Light 15h 28m
Length of Day
14h 22m
Waxing Gibbous, 94% of the Moon is Illuminated
Aug 8
Waxing Gibbous
Aug 10
Full
Aug 17
Last Quarter
Aug 25
New
Sep 2
First Quarter

Hourly Weather History & Observations

Time (CDT) Temp. Heat Index Dew Point Humidity Pressure Visibility Wind Dir Wind Speed Gust Speed Precip Events Conditions
12:13 AM 70.0 °F - 63.5 °F 80% 30.05 in 10.0 mi ESE 4.6 mph - N/A   Overcast
12:33 AM 69.8 °F - 63.5 °F 80% 30.05 in 10.0 mi ESE 4.6 mph - N/A   Overcast
12:52 AM 69.4 °F - 63.5 °F 81% 30.05 in 10.0 mi ESE 4.6 mph - N/A   Overcast
1:12 AM 68.7 °F - 63.5 °F 83% 30.06 in 10.0 mi ESE 3.5 mph - N/A   Overcast
1:33 AM 68.2 °F - 63.5 °F 85% 30.05 in 10.0 mi ESE 3.5 mph - N/A   Overcast
1:52 AM 68.0 °F - 63.5 °F 85% 30.05 in 10.0 mi Calm Calm - N/A   Overcast
2:13 AM 68.0 °F - 63.5 °F 85% 30.05 in 10.0 mi Calm Calm - N/A   Overcast
2:32 AM 67.1 °F - 63.0 °F 87% 30.05 in 10.0 mi Calm Calm - N/A   Mostly Cloudy
2:53 AM 67.3 °F - 63.0 °F 86% 30.06 in 10.0 mi Calm Calm - N/A   Mostly Cloudy
3:13 AM 67.5 °F - 62.8 °F 85% 30.06 in 10.0 mi Calm Calm - N/A   Overcast
3:33 AM 67.3 °F - 62.8 °F 85% 30.06 in 10.0 mi ESE 3.5 mph - N/A   Overcast
3:53 AM 66.7 °F - 63.0 °F 88% 30.07 in 10.0 mi ESE 3.5 mph - N/A   Overcast
4:13 AM 66.7 °F - 62.8 °F 87% 30.07 in 10.0 mi Calm Calm - N/A   Overcast
4:32 AM 66.6 °F - 62.8 °F 88% 30.07 in 10.0 mi Calm Calm - N/A   Overcast
4:53 AM 66.6 °F - 62.6 °F 87% 30.07 in 10.0 mi Calm Calm - N/A   Overcast
5:13 AM 66.2 °F - 62.8 °F 89% 30.07 in 10.0 mi SE 3.5 mph - N/A   Overcast
5:33 AM 65.8 °F - 62.6 °F 89% 30.07 in 10.0 mi Calm Calm - N/A   Overcast
5:52 AM 65.5 °F - 62.2 °F 89% 30.08 in 10.0 mi Calm Calm - N/A   Overcast
6:12 AM 65.3 °F - 62.1 °F 89% 30.09 in 10.0 mi Calm Calm - N/A   Mostly Cloudy
6:33 AM 64.6 °F - 61.9 °F 91% 30.09 in 10.0 mi Calm Calm - N/A   Overcast
6:52 AM 64.8 °F - 61.9 °F 90% 30.10 in 10.0 mi Calm Calm - N/A   Mostly Cloudy
7:13 AM 64.8 °F - 61.9 °F 90% 30.11 in 10.0 mi Calm Calm - N/A   Scattered Clouds
7:33 AM 65.3 °F - 62.4 °F 90% 30.10 in 10.0 mi Calm Calm - N/A   Scattered Clouds
7:53 AM 66.9 °F - 63.5 °F 89% 30.10 in 10.0 mi Calm Calm - N/A   Clear
8:12 AM 68.2 °F - 63.7 °F 85% 30.10 in 10.0 mi ESE 5.8 mph - N/A   Clear
8:33 AM 70.0 °F - 63.7 °F 80% 30.11 in 10.0 mi SE 5.8 mph - N/A   Mostly Cloudy
8:52 AM 71.2 °F - 63.9 °F 77% 30.11 in 10.0 mi East 6.9 mph - N/A   Overcast
9:13 AM 71.8 °F - 63.5 °F 75% 30.11 in 10.0 mi ESE 9.2 mph - N/A   Mostly Cloudy
9:32 AM 72.1 °F - 63.7 °F 75% 30.11 in 10.0 mi ESE 6.9 mph - N/A   Mostly Cloudy
9:53 AM 73.2 °F - 63.5 °F 71% 30.11 in 10.0 mi SE 6.9 mph - N/A   Mostly Cloudy
10:13 AM 72.5 °F - 63.3 °F 73% 30.11 in 10.0 mi SE 9.2 mph - N/A   Mostly Cloudy
10:32 AM 74.1 °F - 64.8 °F 72% 30.11 in 10.0 mi ESE 8.1 mph - N/A   Scattered Clouds
10:52 AM 73.8 °F - 65.1 °F 74% 30.11 in 10.0 mi SSE 6.9 mph - N/A   Mostly Cloudy
11:13 AM 74.7 °F - 64.4 °F 70% 30.11 in 10.0 mi SE 8.1 mph - N/A   Scattered Clouds
11:33 AM 74.8 °F - 62.8 °F 66% 30.11 in 10.0 mi SE 6.9 mph - N/A   Scattered Clouds
11:53 AM 75.6 °F - 61.3 °F 61% 30.12 in 10.0 mi SSE 9.2 mph - N/A   Overcast
12:13 PM 76.5 °F - 62.2 °F 61% 30.12 in 10.0 mi SE 9.2 mph - N/A   Overcast
12:33 PM 77.0 °F - 62.2 °F 60% 30.11 in 10.0 mi SSE 8.1 mph - N/A   Overcast
12:53 PM 76.3 °F - 61.0 °F 59% 30.11 in 10.0 mi ESE 9.2 mph - N/A   Mostly Cloudy
1:12 PM 77.7 °F - 62.8 °F 60% 30.11 in 10.0 mi ESE 9.2 mph - N/A   Overcast
1:33 PM 77.7 °F - 62.1 °F 58% 30.10 in 10.0 mi SE 8.1 mph - N/A   Overcast
1:53 PM 78.4 °F - 62.1 °F 57% 30.10 in 10.0 mi SE 6.9 mph - N/A   Scattered Clouds
2:13 PM 77.7 °F - 62.1 °F 58% 30.09 in 10.0 mi SSE 5.8 mph - N/A   Mostly Cloudy
2:33 PM 78.4 °F - 60.6 °F 54% 30.09 in 10.0 mi SSE 10.4 mph - N/A   Overcast
2:53 PM 79.3 °F - 61.0 °F 53% 30.09 in 10.0 mi SE 11.5 mph - N/A   Overcast
3:33 PM 79.0 °F - 60.6 °F 53% 30.08 in 10.0 mi SSE 6.9 mph - N/A   Overcast
3:53 PM 79.7 °F - 61.2 °F 53% 30.09 in 10.0 mi SE 9.2 mph - N/A   Overcast
4:13 PM 81.1 °F 81.8 °F 60.1 °F 49% 30.08 in 10.0 mi East 8.1 mph - N/A   Overcast
4:33 PM 79.3 °F - 60.1 °F 52% 30.08 in 10.0 mi ESE 8.1 mph - N/A   Mostly Cloudy
4:52 PM 78.4 °F - 59.5 °F 52% 30.08 in 10.0 mi ESE 8.1 mph - N/A   Mostly Cloudy
5:13 PM 79.2 °F - 60.3 °F 52% 30.08 in 10.0 mi ESE 8.1 mph - N/A   Overcast
5:32 PM 78.1 °F - 59.7 °F 53% 30.07 in 10.0 mi SE 6.9 mph - N/A   Mostly Cloudy
5:53 PM 77.9 °F - 60.4 °F 55% 30.07 in 10.0 mi SE 5.8 mph - N/A   Overcast
6:12 PM 77.5 °F - 60.8 °F 56% 30.07 in 10.0 mi ESE 8.1 mph - N/A   Overcast
6:53 PM 76.6 °F - 61.3 °F 59% 30.08 in 10.0 mi ESE 6.9 mph - N/A   Overcast
7:12 PM 76.5 °F - 61.0 °F 59% 30.07 in 10.0 mi ESE 5.8 mph - N/A   Overcast
7:33 PM 75.7 °F - 61.5 °F 61% 30.07 in 10.0 mi SE 4.6 mph - N/A   Mostly Cloudy
7:52 PM 75.4 °F - 61.5 °F 62% 30.07 in 10.0 mi SE 4.6 mph - N/A   Mostly Cloudy
8:12 PM 74.1 °F - 62.1 °F 66% 30.07 in 10.0 mi SE 3.5 mph - N/A   Scattered Clouds
8:33 PM 72.0 °F - 62.8 °F 73% 30.07 in 10.0 mi ESE 4.6 mph - N/A   Mostly Cloudy
8:52 PM 70.7 °F - 62.2 °F 75% 30.07 in 10.0 mi ESE 3.5 mph - N/A   Mostly Cloudy
11:13 PM 70.0 °F - 62.6 °F 77% 30.08 in 10.0 mi ESE 4.6 mph - N/A   Overcast
11:32 PM 70.3 °F - 62.6 °F 76% 30.08 in 10.0 mi East 5.8 mph - N/A   Overcast